{"data":{"norad_id":56503,"intl_designator":"2023-065A","name":"STARLINK-5775","alt_names":[],"object_type":"PAYLOAD","status":"ACTIVE","operator":null,"country":"US","launch_date":"2023-05-14","launch_site_code":"AFETR","launch_vehicle":null,"mission":null,"orbit_class":"UNKNOWN","rcs_meters":null,"size_class":null,"mass_kg":null,"dimensions":null,"purposes":["comms"],"wikipedia_slug":null,"has_3d_model":false,"image_url":null,"decayed_at":null,"tle_current":{"epoch":"2026-05-24T11:34:57.670752Z","epoch_age_seconds":115759,"freshness":"FRESH","line1":"1 56503U 23065A   26144.48261193 -.00000471  00000+0 -75817-5 0  9992","line2":"2 56503  43.0023 144.2463 0001446 273.1588  86.9098 15.27579848168197","mean_motion":15.27579848,"eccentricity":0.0001446,"inclination_deg":43.0023,"raan_deg":144.2463,"arg_perigee_deg":273.1588,"mean_anomaly_deg":86.9098,"bstar":-7.5817e-6,"rev_number":16819,"period_min":94.266758093551,"perigee_km":482.05742360707,"apogee_km":484.04167875767,"semimajor_km":6861.1865511824,"source":"CELESTRAK","updated_at":"2026-05-25T13:38:18.077246Z"}}}